Weather History for Grazzanise, Italy

Change the Weather History Date:

Sunday, March 17, 2013

  Actual Average Record
Temperature  
Mean Temperature 44 °F -  
Max Temperature 54 °F 63 °F - ()
Min Temperature 33 °F 44 °F - ()
Degree Days  
Heating Degree Days 22    
Moisture  
Dew Point 38 °F    
Average Humidity 79    
Maximum Humidity 93    
Minimum Humidity 47    
Precipitation  
Precipitation 0.00 in 0.09 in - ()
Sea Level Pressure  
Sea Level Pressure 30.03 in    
Wind  
Wind Speed 5 mph ()    
Max Wind Speed 8 mph    
Max Gust Speed -    
Visibility 7.2 miles    
Events Rain    
T = Trace of Precipitation, MM = Missing Value Source: Averaged Metar Reports

Daily Weather History Graph

Daily Weather History Graph

Search for Another Location

Airport:

Trip Planner

Search our weather history database for the weather conditions in past years. The results will help you decide how hot, cold, wet, or windy it might be!

Date:

Astronomy

Mar. 17, 2013 Rise Set
Actual Time 6:12 AM CET 6:12 PM CET
Civil Twilight 5:44 AM CET 6:39 PM CET
Nautical Twilight 5:12 AM CET 7:12 PM CET
Astronomical Twilight 4:40 AM CET 7:44 PM CET
Moon 9:09 AM CET (3/17) No Moon Set
Length of Visible Light 12h 55m
Length of Day
12h 00m
Waxing Crescent, 29% of the Moon is Illuminated
Mar 17
Waxing Crescent
Mar 19
First Quarter
Mar 27
Full
Apr 3
Last Quarter
Apr 10
New

Hourly Weather History & Observations

Time (CET) Temp. Windchill Dew Point Humidity Pressure Visibility Wind Dir Wind Speed Gust Speed Precip Events Conditions
12:55 AM 35.6 °F 31.7 °F 33.8 °F 93% 30.12 in 6.2 mi ENE 4.6 mph - N/A   Partly Cloudy
1:00 AM 36 °F - 33 °F 84% 30.14 in 12 mi ENE 4.6 mph - -  
1:55 AM 33.8 °F 28.6 °F 32.0 °F 93% 30.12 in 6.2 mi NNE 5.8 mph - N/A   Partly Cloudy
2:55 AM 33.8 °F 27.7 °F 32.0 °F 93% 30.12 in 6.2 mi NNE 6.9 mph - N/A   Partly Cloudy
3:55 AM 33.8 °F 28.6 °F 32.0 °F 93% 30.09 in 6.2 mi NE 5.8 mph - N/A   Scattered Clouds
4:00 AM 33 °F - 32 °F 92% 30.10 in 12 mi NE 5.8 mph - -   Partly Cloudy
4:55 AM 33.8 °F 28.6 °F 32.0 °F 93% 30.09 in 6.2 mi NE 5.8 mph - N/A   Scattered Clouds
5:55 AM 33.8 °F 27.7 °F 32.0 °F 93% 30.09 in 6.2 mi NNE 6.9 mph - N/A   Scattered Clouds
6:55 AM 35.6 °F 29.9 °F 33.8 °F 93% 30.09 in 6.2 mi NNE 6.9 mph - N/A   Mostly Cloudy
7:00 AM 36 °F - 33 °F 84% 30.10 in 9 mi NNE 6.9 mph - -  
7:55 AM 39.2 °F 34.2 °F 33.8 °F 81% 30.09 in 6.2 mi NNE 6.9 mph - N/A   Mostly Cloudy
8:55 AM 41.0 °F 35.8 °F 35.6 °F 81% 30.09 in 6.2 mi NE 8.1 mph - N/A   Mostly Cloudy
10:00 AM 45 °F - 38 °F 67% 30.10 in 9 mi NE 6.9 mph - -   Scattered Clouds
10:55 AM 48.2 °F - 39.2 °F 71% 30.06 in 6.2 mi ENE 4.6 mph - N/A   Mostly Cloudy
11:55 AM 50.0 °F - 39.2 °F 66% 30.06 in 6.2 mi East 4.6 mph - N/A   Scattered Clouds
12:55 PM 51.8 °F - 37.4 °F 58% 30.04 in 6.2 mi East 3.5 mph - N/A   Scattered Clouds
1:00 PM 52 °F - 38 °F 47% 30.06 in 11 mi East 3.5 mph - -   Overcast
1:55 PM 51.8 °F - 39.2 °F 62% 30.01 in 6.2 mi SSE 8.1 mph - N/A   Mostly Cloudy
2:55 PM 53.6 °F - 39.2 °F 58% 29.98 in 6.2 mi ESE 6.9 mph - N/A   Mostly Cloudy
3:55 PM 53.6 °F - 41.0 °F 62% 29.98 in 6.2 mi South 5.8 mph - N/A   Mostly Cloudy
4:00 PM 54 °F - 41 °F 50% 29.99 in 12 mi South 5.8 mph - -   Partly Cloudy
4:55 PM 53.6 °F - 42.8 °F 67% 29.95 in 6.2 mi NE 2.3 mph - N/A   Mostly Cloudy
5:55 PM 51.8 °F - 42.8 °F 71% 29.95 in 6.2 mi NNE 2.3 mph - N/A   Mostly Cloudy
6:55 PM 50.0 °F - 42.8 °F 76% 29.95 in 6.2 mi NNE 3.5 mph - N/A   Mostly Cloudy
7:00 PM 50 °F - 44 °F 71% 29.97 in 9 mi NNE 3.5 mph - -  
7:55 PM 48.2 °F - 44.6 °F 87% 29.95 in 6.2 mi NE 4.6 mph - N/A Rain Light Rain
8:55 PM 48.2 °F - 44.6 °F 87% 29.92 in 6.2 mi East 4.6 mph - N/A Rain Light Rain
9:55 PM 46.4 °F 45.2 °F 44.6 °F 93% 29.89 in 6.2 mi ENE 3.5 mph - N/A Rain Light Rain
10:00 PM 47 °F - 45 °F 88% 29.92 in 6 mi ENE 3.5 mph - - Rain Light Rain
10:55 PM 46.4 °F 44.3 °F 44.6 °F 93% 29.89 in 6.2 mi NNE 4.6 mph - N/A   Mostly Cloudy
11:55 PM 46.4 °F 44.3 °F 44.6 °F 93% 29.89 in 6.2 mi North 4.6 mph - N/A   Mostly Cloudy